Home   Weather   Chorzów   Past weeks
Flag for Poland

Past Weather in Chorzów, Poland — Yesterday and Last 2 Weeks

Now
70 °F

Passing clouds.


Feels Like: 70 °F
Forecast: 69 / 49 °F
Wind: 15 mph from South

Location: Katowice Airport

Current Time: Oct 20, 2019 at 1:40:10 pm

Latest Report: Oct 20, 2019 at 1:00 pm


Visibility: N/A

Pressure: 29.98 "Hg

Humidity: 46%

Dew Point: 48 °F

Location of ChorzówLocation

Past Weather in Chorzów — Graph

°F

Chorzów Temperature Yesterday

Maximum temperature yesterday: 64 °F (at 2:30 pm)
Minimum temperature yesterday: 43 °F (at 4:00 am)
Average temperature yesterday: 53 °F

High & Low Weather Summary for the Past Weeks

 TemperatureHumidityPressure
High73 °F (Oct 15, 4:00 pm)100% (Oct 5, 11:30 pm)30.15 "Hg (Oct 5, 11:30 pm)
Low23 °F (Oct 7, 5:30 am)43% (Oct 6, 2:00 pm)29.71 "Hg (Oct 5, 1:30 pm)
Average51 °F77%29.98 "Hg
* Reported Oct 5 12:00 pm — Oct 20 12:30 pm, Chorzów. Weather by CustomWeather, © 2019

Note: Actual official high and low records may vary slightly from our data, if they occured in-between our weather recording intervals... More about our weather records

Advertising

Chorzów Weather History for the Previous 24 Hours

Scroll right to see more
 ConditionsComfort  
Time TempWeatherWind HumidityBarometerVisibility
12:30 pm
Sun, Oct 20
68 °FPassing clouds.13 mph53%29.98 "HgN/A
12:00 pm68 °FPassing clouds.10 mph53%29.98 "HgN/A
11:30 am66 °FPassing clouds.13 mph56%29.98 "HgN/A
11:00 am64 °FPassing clouds.8 mph60%29.98 "HgN/A
10:30 am63 °FSunny.7 mph64%29.98 "Hg10 mi
10:00 am59 °FSunny.8 mph68%29.98 "Hg10 mi
9:30 am57 °FSunny.6 mph77%29.98 "Hg10 mi
9:00 am55 °FSunny.2 mph77%29.98 "Hg10 mi
8:30 am50 °FSunny.2 mph82%29.98 "Hg10 mi
8:00 am50 °FClear.5 mph94%29.98 "Hg5 mi
7:30 am41 °FFog.6 mph93%29.95 "Hg3 mi
7:00 am41 °FFog.5 mph100%29.95 "Hg2 mi
6:30 am43 °FFog.3 mph93%29.95 "Hg1 mi
6:00 am46 °FFog.6 mph93%29.95 "Hg3 mi
5:30 am50 °FClear.3 mph88%29.95 "Hg5 mi
5:00 am45 °FFog.2 mph93%29.95 "Hg3 mi
4:30 am45 °FClear.5 mph93%29.95 "Hg4 mi
4:00 am46 °FClear.6 mph93%29.95 "Hg4 mi
3:30 am52 °FClear.3 mph82%29.95 "Hg5 mi
3:00 am46 °FClear.2 mph93%29.95 "Hg4 mi
2:30 am46 °FClear.2 mph93%29.95 "Hg6 mi
2:00 am52 °FClear.8 mph82%29.92 "Hg10 mi
1:30 am52 °FClear.9 mph82%29.92 "Hg10 mi
1:00 am46 °FFog.3 mph93%29.95 "Hg3 mi
12:30 am50 °FClear.5 mph88%29.95 "Hg4 mi
12:00 am52 °FClear.8 mph82%29.95 "Hg6 mi
11:30 pm
Sat, Oct 19
50 °FClear.5 mph94%29.95 "Hg4 mi
11:00 pm46 °FFog.5 mph100%29.95 "Hg3 mi
10:30 pm48 °FPassing clouds.5 mph94%29.95 "Hg4 mi
10:00 pm46 °FFog.5 mph93%29.95 "Hg3 mi
9:30 pm48 °FClear.3 mph94%29.95 "Hg4 mi
9:00 pm48 °FClear.2 mph94%29.95 "Hg5 mi
8:30 pm50 °FPassing clouds.3 mph82%29.95 "HgN/A
8:00 pm55 °FClear.5 mph72%29.95 "Hg10 mi
7:30 pm55 °FClear.5 mph72%29.95 "Hg4 mi
7:00 pm55 °FClear.6 mph72%29.95 "Hg6 mi
6:30 pm52 °FClear.3 mph88%29.95 "Hg10 mi
6:00 pm54 °FPassing clouds.2 mph82%29.95 "HgN/A
5:30 pm57 °FPassing clouds.5 mph67%29.95 "HgN/A
5:00 pm61 °FSunny.6 mph59%29.95 "Hg10 mi
4:30 pm63 °FSunny.6 mph59%29.95 "Hg10 mi
4:00 pm64 °FSunny.6 mph52%29.92 "Hg10 mi
3:30 pm64 °FPassing clouds.5 mph52%29.92 "HgN/A
3:00 pm64 °FPassing clouds.3 mph52%29.95 "HgN/A
2:30 pm64 °FSunny.2 mph56%29.95 "Hg10 mi
2:00 pm63 °FPassing clouds.3 mph59%29.95 "HgN/A
1:30 pm61 °FSunny.2 mph63%29.95 "Hg10 mi
1:00 pm61 °FPassing clouds.3 mph63%29.95 "HgN/A
Weather by CustomWeather, © 2019

See weather overview